Home > Time Zones > World Clock > Weather > Spain > Cadiz > Past weeks

Flag for Spain Weather past 2 weeks in Cadiz, Cádiz, Spain

Now
70 °F

Clear.


Feels Like: 70 °F
Forecast: 64 / 72 °F
Wind: 9 mph from Southwest

Location: Rota Airport

Current Time: Sep 3, 2015 at 2:32:36 AM

Latest Report: Sep 3, 2015 at 2:00 AM


Visibility: 10 mi

Pressure: 30.01 "Hg

Humidity: 83%

Dew point: 64 °F

Location of CadizLocation

Historic Weather in Cadiz — Graph

°F

Cadiz temperature yesterday

Maximum temperature yesterday: 75 °F (at 2:00 PM)
Minimum temperature yesterday: 68 °F (at 1:00 AM)
Average temperature yesterday: 71 °F

Past Weeks' High & Low Weather Summary

 TemperatureHumidityPressure
High93 °F (Aug 28, 2:47 PM)100% (Aug 31, 4:00 AM)30.09 "Hg (Aug 31, 4:00 AM)
Low61 °F (Aug 25, 6:00 AM)37% (Aug 25, 1:00 PM)29.86 "Hg (Aug 30, 12:00 AM)
Average75 °F74%30.00 "Hg
* Reported Aug 19 1:00 AM — Sep 3 1:00 AM, Cadiz, Weather by CustomWeather, © 2015

Note: Actual official high and low records may vary slightly from our data, if they occured in-between our weather recording intervals... More about our weather records

Advertising

Cadiz weather history for previous 24 hours

 ConditionsComfort  
Time TempWeatherWind HumidityBarometerVisibility
1:00 AM
Thu, Sep 3
70 °FClear.10 mph78%29.98 "Hg10 mi
12:00 AM70 °FClear.9 mph78%29.98 "Hg10 mi
11:00 PM
Wed, Sep 2
70 °FPassing clouds.9 mph83%29.98 "HgN/A
10:00 PM70 °FPassing clouds.10 mph83%29.98 "HgN/A
9:00 PM70 °FScattered clouds.10 mph83%29.95 "HgN/A
8:00 PM72 °FPassing clouds.13 mph78%29.95 "HgN/A
7:00 PM73 °FPassing clouds.13 mph69%29.95 "HgN/A
6:00 PM73 °FPassing clouds.13 mph69%29.98 "HgN/A
5:00 PM73 °FSunny.10 mph74%29.95 "Hg10 mi
4:00 PM73 °FPassing clouds.10 mph74%29.98 "HgN/A
3:00 PM75 °FScattered clouds.7 mph69%29.98 "HgN/A
2:00 PM75 °FScattered clouds.8 mph69%30.01 "HgN/A
1:00 PM73 °FScattered clouds.10 mph74%30.01 "HgN/A
12:00 PM73 °FScattered clouds.9 mph74%30.01 "HgN/A
11:00 AM72 °FScattered clouds.10 mph78%30.01 "HgN/A
10:00 AM70 °FPartly sunny.7 mph83%30.01 "HgN/A
9:00 AM70 °FScattered clouds.7 mph78%29.98 "HgN/A
8:00 AM68 °FPassing clouds.7 mph83%29.98 "HgN/A
7:00 AM68 °FPassing clouds.6 mph88%29.98 "HgN/A
6:00 AM68 °FPassing clouds.7 mph88%29.98 "Hg6 mi
5:00 AM68 °FPassing clouds.6 mph88%29.98 "Hg6 mi
4:00 AM68 °FPassing clouds.6 mph94%29.98 "Hg6 mi
3:00 AM68 °FPassing clouds.3 mph94%30.01 "Hg6 mi
2:00 AM68 °FPassing clouds.6 mph94%30.01 "Hg6 mi
Weather by CustomWeather, © 2015

See weather overviewHow to use our weather pages